Preview of NWS' New Version of Forecast
This preview is not operational and should not be used for support decisions.

Regional Weather Roundup (RWR)

Issued by National Weather Service (NWS)

                            
000
ASUS43 KDTX 221110
RWRMI 
MICHIGAN HOURLY REGIONAL WEATHER ROUNDUP
NATIONAL WEATHER SERVICE DETROIT/PONTIAC MI
700 AM EDT MON APR 22 2019

NOTE: "FAIR" INDICATES FEW OR NO CLOUDS BELOW 12,000 FEET WITH NO
SIGNIFICANT WEATHER AND/OR OBSTRUCTION TO VISIBILITY.

MIZ047>049-052>055-059>063-066>070-074>076-081>083-221200-
SOUTHEAST LOWER MICHIGAN
  
CITY           SKY/WX    TMP DP  RH WIND       PRES   REMARKS
ADRIAN         FAIR      45  42  89 S3        30.20R                  
ALMA           FAIR      51  44  78 S7        30.14S                  
ANN ARBOR      FAIR      38  38 100 S5        30.18R WCI  34          
BAD AXE        FAIR      48  41  79 S5        30.16R                  
CARO           FAIR      43  41  91 CALM      30.16R                  
DETROIT CITY   FAIR      49  43  80 SE5       30.19R                  
DETROIT        MOCLDY    48  43  82 S5        30.19R                  
FLINT          FAIR      47  42  83 CALM      30.17R                  
GROSSE ILE     FAIR      46  44  93 S6        30.18S                  
HILLSDALE      FAIR      47  41  79 S6        30.17R                  
HOWELL         FAIR      48  42  78 S5        30.17R                  

CITY           SKY/WX    TMP DP  RH WIND       PRES   REMARKS
JACKSON        FAIR      46  42  86 E3        30.16R                  
LAMBERTVILLE   FAIR      48  45  89 S5        30.18S                  
LANSING        FAIR      51  43  74 S8        30.16R                  
LAPEER         FAIR      44  43  94 CALM      30.18R                  
MASON          FAIR      49  43  81 S7        30.16S                  
MONROE         FAIR      46  46  98 CALM      30.18R                  
MT. CLEMENS    CLOUDY    44  44 100 SE5       30.19R                  
PONTIAC        FAIR      48  44  86 CALM      30.18R                  
PORT HOPE        N/A     45  41  86 S3        30.15R                  
PORT HURON     FAIR      46  41  81 CALM      30.21R                  
TRI CITIES     FAIR      52  45  77 S7        30.16R                  
MIDLAND        FAIR      51  44  75 CALM      30.14S                  
TROY           FAIR      48  42  77 CALM      30.21R                  
SAGINAW HB     FAIR      52  45  76 S5        30.15R                  
$$
MIZ043>046-050>051-056>058-064>065-071>073-077>080-221200-
SOUTHWEST LOWER MICHIGAN
  
CITY           SKY/WX    TMP DP  RH WIND       PRES   REMARKS
BATTLE CREEK   FAIR      50  42  74 S6        30.15R                  
BENTON HARBOR  FAIR      53  40  61 SE9       30.10S                  
BIG RAPIDS     FAIR      51  40  65 SE3       30.11R                  
COLDWATER      FAIR      50  45  82 SE5       30.16R                  
FREMONT        FAIR      52  40  64 SE5       30.10R                  
HOLLAND        FAIR      51  41  68 SE8       30.11R                  
GRAND RAPIDS   MOCLDY    51  42  71 S8        30.12R                  
IONIA          FAIR      49  41  73 S5        30.13R                  
KALAMAZOO      FAIR      51  43  74 S5        30.15R                  
LUDINGTON      FAIR      55  36  47 SE5       30.05R                  
MARSHALL       FAIR      50  45  82 SE5       30.15R                  
MOUNT PLEASANT FAIR      52  44  74 CALM      30.13R                  
MUSKEGON       MOCLDY    50  39  66 SE7       30.10R                  
SOUTH HAVEN    FAIR      54  40  59 S5        30.10S                  
$$
MIZ016>042-221200-
NORTHERN LOWER MICHIGAN
  
CITY           SKY/WX    TMP DP  RH WIND       PRES   REMARKS
ALPENA         FAIR      42  39  89 SE5       30.13R                  
BEAVER ISLAND  CLOUDY    41  33  74 E5        30.10R                  
BELLAIRE       FAIR      45  40  82 CALM      30.08R                  
CADILLAC       FAIR      57  37  48 S5        30.09R                  
CHARLEVOIX     FAIR      47  35  62 CALM      30.11R                  
FRANKFORT      FAIR      61  33  35 CALM      30.05R                  
GAYLORD        MOCLDY    50  36  58 S5        30.09R                  
GRAYLING       CLOUDY    49  39  68 S3        30.10R                  
HARBOR SPRINGS MOCLDY    43  33  68 E7        30.10R                  
HOUGHTON LAKE  FAIR      52  37  56 S5        30.12R                  
MANISTEE       FAIR      53  38  56 E5        30.06R                  
OSCODA         FAIR      44  40  85 CALM      30.15R                  
PELLSTON       CLOUDY    40  34  79 CALM      30.11S                  
ROGERS CITY    CLOUDY    39  36  89 CALM      30.13R                  
TRAVERSE CITY  CLOUDY    46  38  73 SE5       30.05S                  
$$
MIZ007>008-015-221200-
EASTERN UPPER MICHIGAN
  
CITY           SKY/WX    TMP DP  RH WIND       PRES   REMARKS
KINROSS        LGT RAIN  41  35  79 E12       30.12                   
MACKINAC ISLAN CLOUDY    38  33  81 E15G22    30.11R WCI  29          
NEWBERRY       LGT RAIN  40  38  91 SE8       30.08S WCI  35          
S. S. MARIE    LGT RAIN  44  38  79 E9        30.13R                  
MUNISING         N/A     35  34  96 N5        30.10R WCI  31          
$$
MIZ004>006-011>014-085-221200-
CENTRAL UPPER MICHIGAN
  
CITY           SKY/WX    TMP DP  RH WIND       PRES   REMARKS
MANISTIQUE     LGT RAIN  41  36  80 E7        30.07F                  
ESCANABA       RAIN      41  38  89 NE3       30.07F                  
MENOMINEE      MOCLDY    43  33  68 NE10      30.06R                  
SAWYER-GWINN   SNOW      37  36  93 N6        30.09R VSB 1/4 WCI  33  
$$
MIZ001>003-009>011-084-221200-
WESTERN UPPER MICHIGAN
  
CITY           SKY/WX    TMP DP  RH WIND       PRES   REMARKS
IRON MOUNTAIN  LGT RAIN  41  38  89 CALM      30.04F                  
HOUGHTON       LGT RAIN  40  38  93 E9        30.11R WCI  34          
COPPER HARBOR    N/A     37  34  89 E5        30.15S WCI  33          
IRONWOOD       RAIN      40  39  97 NE6       30.09R                  
$$

ABBREVIATIONS USED IN REMARKS
   TC - TEMPERATURE IN CELSIUS
  WCI - WIND CHILL INDEX
   HX - HEAT INDEX
  VSB - VISIBILITY